Regional Weather Roundup
Issued by NWS

Home | Current Version | Previous Version | Text Only | Print | Product List | Glossary On
Versions: 1 2 3 4 5 6 7 8 9 10 11 12 13 14 15 16 17 18 19 20 21 22 23 24 25 26 27 28 29 30 31 32 33 34 35 36 37 38 39 40 41 42 43 44 45 46 47 48 49 50
000
ASUS43 KLMK 112010
RWRKY
KENTUCKY REGIONAL WEATHER ROUNDUP
NATIONAL WEATHER SERVICE LOUISVILLE KY
300 PM EST MON NOV 11 2019

NOTE "FAIR" INDICATES FEW OR NO CLOUDS BELOW 12,000 FEET
WITH NO SIGNIFICANT WEATHER AND/OR OBSTRUCTIONS TO VISIBILITY.

KYZ001>023-026-027-061>063-070>075-112100-
WESTERN AND SOUTH CENTRAL KENTUCKY

CITY           SKY/WX    TMP DP  RH WIND       PRES   REMARKS
PADUCAH          N/A    N/A N/A N/A MISG      30.11R
HENDERSON      LGT RAIN  38  36  92 NW16G22   30.11R WCI  29
OWENSBORO      LGT RAIN  42  41  96 NW16G23   30.07R FOG
HOPKINSVILLE   DRIZZLE   50  48  93 NW18G26   30.02S
BOWLING GREEN  CLOUDY    61  46  57 W12       29.98S
GLASGOW        CLOUDY    62  45  54 SW13      29.97S
$$

KYZ024-025-028>034-038-045-046-053-112100-
NORTH CENTRAL KENTUCKY

CITY           SKY/WX    TMP DP  RH WIND       PRES   REMARKS
LOUISVILLE/SDF CLOUDY    57  43  59 W15       29.95S
LOUISVILLE/LOU CLOUDY    57  43  59 NW10      29.95R
FORT KNOX      CLOUDY    55  43  64 W15G21    29.96S
$$

KYZ035>037-039>044-047>052-055>060-089>105-112100-
NORTHEAST KENTUCKY

CITY           SKY/WX    TMP DP  RH WIND       PRES   REMARKS
LEXINGTON      CLOUDY    64  43  46 SW15G25   29.93S
COVINGTON      CLOUDY    50  44  80 NW16      29.92R
FRANKFORT      PTSUNNY   62  44  51 SW15G31   29.91F
$$

KYZ054-064>069-076>088-106>120-112100-
SOUTHEAST KENTUCKY

CITY           SKY/WX    TMP DP  RH WIND       PRES   REMARKS
JACKSON        FAIR      64  41  42 VRB6      29.95F
LONDON         FAIR      64  41  42 SW13      29.96F
SOMERSET       PTSUNNY   61  37  41 SW9       29.98F
MIDDLESBORO    FAIR      63  43  48 S8        30.00F
MONTICELLO     CLOUDY    63  46  54 W17       29.99F
$$




USA.gov is the U.S. government's official web portal to all federal, state and local government web resources and services.